Regional Weather Roundup
Issued by NWS Newport/Morehead, NC

Home | Current Version | Previous Version | Text Only | Print | Product List | Glossary On
Versions: 1 2 3 4 5 6 7 8 9 10 11 12 13 14 15 16 17 18 19 20 21 22 23 24 25 26 27 28 29 30 31 32 33 34 35 36 37 38 39 40 41 42 43 44 45 46 47 48 49 50
000
ASUS42 KMHX 250725
RWRMHX
WEATHER ROUNDUP FOR EASTERN NORTH CAROLINA
NATIONAL WEATHER SERVICE NEWPORT/MOREHEAD CITY NC
300 AM EDT THU MAY 25 2017

NOTE: "FAIR" INDICATES FEW OR NO CLOUDS BELOW 12,000 FEET
WITH NO SIGNIFICANT WEATHER AND/OR OBSTRUCTIONS TO VISIBILITY

NCZ015>017-031-032-045>047-102-103-250800-
NORTH COAST

CITY           SKY/WX    TMP DP  RH WIND       PRES   REMARKS
EDENTON        RAIN      73  70  89 S12G18    29.55S
ELIZABETH CITY CLOUDY    71  70  96 S12       29.55S
KITTY HAWK     CLOUDY    70  70 100 S9        29.56S
MANTEO         CLOUDY    71  68  90 S16G22    29.57S

$$

NCZ045>047-081-094-103-104-250800-
CENTRAL COAST

CITY           SKY/WX    TMP DP  RH WIND       PRES   REMARKS
FRISCO         NOT AVBL

$$

NCZ095-097-098-100-101-250800-
SOUTHERN COAST

CITY           SKY/WX    TMP DP  RH WIND       PRES   REMARKS
BEAUFORT       CLOUDY    75  71  87 S24G32    29.55F
CEDAR ISLAND   NOT AVBL
JACKSONVILLE   LGT RAIN  70  69  97 SW10      29.53S FOG
PINEY ISLAND   PTSUNNY  N/A N/A N/A S14G23    29.54F
WILMINGTON     CLOUDY    74  70  87 SW13      29.53S


$$

NCZ011>013-027>030-043-044-078>080-089-090>093-098-250800-
COASTAL PLAIN

CITY           SKY/WX    TMP DP  RH WIND       PRES   REMARKS
AHOSKIE          N/A     67  67  99 SE7       29.49F
CLINTON        CLOUDY    71  69  96 S3        29.51F
ELIZABETHTOWN  CLOUDY    71  69  94 S6        29.51F
GOLDSBORO      CLOUDY    71  71 100 S9        29.49F
GREENVILLE     LGT RAIN  70  70 100 S9        29.54F
HAVELOCK       CLOUDY    74  67  78 S13G35    29.53F
KENANSVILLE    CLOUDY    70  68  94 SW3       29.51F
KINSTON        CLOUDY    70  68  95 S8        29.51F
NEW BERN       CLOUDY    74  70  87 S13G24    29.54F
RICHLANDS      LGT RAIN  71  69  93 S14       29.53F
ROCKY MOUNT    CLOUDY    70  69  97 S10       29.49F
WASHINGTON     HVY RAIN  69  69  97 S7        29.53F
WHITEVILLE     CLOUDY    71  69  94 S7        29.52F

$$

AMZ130-135-150-152-154-156-158-170-250-252-270-ANZ085-086-088-633-658-670-250800-
MARINE OBSERVATIONS

STATION/POSITION TIME  TEMP    WIND        PRES    WAVE   SWELL
                       AIR SEA DIR/SP/G            HT/PER HT/PER
                 (UTC) (F)     (DEG/KT/KT) (MB)    (FT/S) (FT/S)
CHESAPEAKE LIGHT NOT AVBL
64 E VA BEACH    0650   69 64  150/ 17/ 19 1001.6    5/ 5   2/11
DUCK             0700   70 65  160/ 14/ 18 1000.5
2 E DUCK         0700      65                N/A     4/ 5
OREGON INLET     0700   70 68  150/ 11/ 15 1001.3
13E OREGON INLT  0648      65                N/A     6/ 7   5/ 7
HATTERAS CG      0700   74 74  170/ 13/ 18 1001.0
DIAMOND BUOY     0650   76 74  180/ 23/ 27 1001.5    6/ 8   3/ 8
CAPE LOOKOUT     0700   74     190/ 21/ 24 1000.6
BEAUFORT LAB     0700   75 72  190/ 24/ 29  999.5
30 SE NEW RVR IN 0708   73 76  190/ 17/ 23 1001.2
30 SE NEW RVR IN 0713      75                N/A     8/ 8
27 SE WRIGHTSVLE 0708   74 75  190/ 17/ 23 1000.1
5 SE WRIGHTSVLE  0708   75 74  210/ 16/ 27 1000.3
225 S CAPE HAT   0650   77 77  180/ 25/ 39 1007.5   10/ 8
41 SE CHARLESTON 0710   76 76  220/ 25/ 31 1001.8

$$




USA.gov is the U.S. government's official web portal to all federal, state and local government web resources and services.